Tracking 19905 objects as of 18-Oct-2019
HD Live streaming from Space Station
objects crossing your sky now

TITAN 34D TRANSTAGE DEB

Track TITAN 34D TRANSTAGE DEB now!


NORAD ID: 22669
Int'l Code: 1988-077E
Perigee: 462.7 km
Apogee: 38,296.5 km
Inclination: 26.9 °
Period: 685.4 minutes
Semi major axis: 25750 km
RCS: Unknown
Launch date: September 2, 1988
Source: United States (US)
Launch site: AIR FORCE EASTERN TEST RANGE (AFETR)

Note: This is SATELLITE DEBRIS
aabbcc
Your satellite tracking list
Your tracking list is empty




NASA's NSSDC Master Catalog

Two Line Element Set (TLE):
1 22669U 88077E   19289.33555332 -.00000152  00000-0 -16600-3 0  9999
2 22669  26.9033 283.9690 7346195 117.8430 332.4637  2.10098200  2749
Source of the keplerian elements: AFSPC